User: anonymous   Login
Location: Observatoire
(46.1952°N, 5.3391°E)
Time: 02:13:09
(UTC+02:00)
Language:

JY1SAT - Orbit

View from above orbital plane
View from above orbital plane
View from above satellite
View from above satellite

Ground track
Ground track

The orbit data is extracted from the following two-line orbital elements,

1 43803U 18099AX  24114.38022782  .00017853  00000-0  12227-2 0  9999
2 43803  97.5251 174.3035 0011513 128.5041 231.7221 15.06072141294442
Epoch (UTC): 23 April 2024 09:07:31
Eccentricity: 0.0011513
inclination: 97.5251°
perigee height: 540 km
apogee height: 556 km
right ascension of ascending node: 174.3035°
argument of perigee: 128.5041°
revolutions per day: 15.06072141
mean anomaly at epoch: 231.7221°
orbit number at epoch: 29444

The dashed part of the orbit path shows where the satellite is in the earth's shadow,  

DLR